,,PA_Meas_PMT16A,,PR_Meas_QMR101_102,,RH_Meas_QMH101,,SR_Meas_QMS101,,TA_Meas_QMH101,,GenWind,,GenWind,
time,status,PA,status,PR,status,RH,status,SR,status,TA,status,DirAvg,status,SpdAvg,
2014-01-05, 00:00:04,VALID,918.883,VALID,0,VALID,96.9241,VALID,0,VALID,18.8282,VALID,183,VALID,0.480859,
2014-01-05, 00:01:04,VALID,918.829,VALID,0,VALID,96.9317,VALID,0,VALID,18.8282,VALID,182,VALID,0.479297,
2014-01-05, 00:02:04,VALID,918.817,VALID,0,VALID,96.9165,VALID,0,VALID,18.8282,VALID,182,VALID,0.328516,
2014-01-05, 00:03:04,VALID,918.84,VALID,0,VALID,96.9165,VALID,0.107441,VALID,18.8268,VALID,182,VALID,0,
2014-01-05, 00:04:04,VALID,918.85,VALID,0,VALID,96.9165,VALID,0.107441,VALID,18.8268,VALID,182,VALID,0,
2014-01-05, 00:05:04,VALID,918.84,VALID,0,VALID,96.9317,VALID,0,VALID,18.8268,VALID,182,VALID,0.113281,
2014-01-05, 00:06:04,VALID,918.809,VALID,0,VALID,96.9165,VALID,0,VALID,18.8477,VALID,174,VALID,0.944531,
2014-01-05, 00:07:04,VALID,918.819,VALID,0,VALID,96.9165,VALID,0,VALID,18.8268,VALID,149,VALID,1.06484,
2014-01-05, 00:08:04,VALID,918.813,VALID,0,VALID,96.9012,VALID,0.107441,VALID,18.8268,VALID,144,VALID,0.772656,
2014-01-05, 00:09:04,VALID,918.802,VALID,0,VALID,96.8936,VALID,0,VALID,18.8477,VALID,138,VALID,1.35039,
2014-01-05, 00:10:04,VALID,918.81,VALID,0,VALID,96.886,VALID,0,VALID,18.8463,VALID,128,VALID,0.648438,
2014-01-05, 00:11:04,VALID,918.781,VALID,0,VALID,96.9012,VALID,0,VALID,18.8672,VALID,129,VALID,0.739453,
2014-01-05, 00:12:04,VALID,918.811,VALID,0,VALID,96.8784,VALID,0,VALID,18.8658,VALID,127,VALID,0.541016,
2014-01-05, 00:13:04,VALID,918.775,VALID,0,VALID,96.8784,VALID,0.107441,VALID,18.9062,VALID,127,VALID,1.09492,
2014-01-05, 00:14:04,VALID,918.824,VALID,0,VALID,96.8707,VALID,0.107441,VALID,18.8658,VALID,30,VALID,1.03633,
2014-01-05, 00:15:04,VALID,918.812,VALID,0,VALID,96.8479,VALID,0,VALID,18.8867,VALID,30,VALID,0.361719,
2014-01-05, 00:16:04,VALID,918.814,VALID,0,VALID,96.8403,VALID,0,VALID,18.8853,VALID,71,VALID,0.339844,
2014-01-05, 00:17:04,VALID,918.769,VALID,0,VALID,96.825,VALID,0.107441,VALID,18.9062,VALID,184,VALID,1.11406,
2014-01-05, 00:18:04,VALID,918.764,VALID,0,VALID,96.8326,VALID,0,VALID,18.8853,VALID,160,VALID,0.651563,
2014-01-05, 00:19:04,VALID,918.73,VALID,0,VALID,96.8479,VALID,0.107441,VALID,18.8658,VALID,117,VALID,1.54023,
2014-01-05, 00:20:04,VALID,918.719,VALID,0,VALID,96.8174,VALID,0.107441,VALID,18.8463,VALID,127,VALID,0.877344,
2014-01-05, 00:21:04,VALID,918.721,VALID,0,VALID,96.7945,VALID,0,VALID,18.8477,VALID,113,VALID,0.297656,
2014-01-05, 00:22:04,VALID,918.692,VALID,0,VALID,96.8326,VALID,0.107441,VALID,18.8073,VALID,112,VALID,0.680859,
2014-01-05, 00:23:04,VALID,918.723,VALID,0,VALID,96.7945,VALID,0.107441,VALID,18.8073,VALID,112,VALID,0.74375,
2014-01-05, 00:24:04,VALID,918.718,VALID,0,VALID,96.8098,VALID,0,VALID,18.7878,VALID,112,VALID,0.465625,
2014-01-05, 00:25:04,VALID,918.744,VALID,0,VALID,96.7869,VALID,0.107441,VALID,18.7878,VALID,112,VALID,0,
2014-01-05, 00:26:04,VALID,918.735,VALID,0,VALID,96.7869,VALID,0.107441,VALID,18.8073,VALID,112,VALID,0.00429688,
2014-01-05, 00:27:04,VALID,918.738,VALID,0,VALID,96.8021,VALID,0,VALID,18.8059,VALID,112,VALID,0.157031,
2014-01-05, 00:28:04,VALID,918.711,VALID,0,VALID,96.8174,VALID,0,VALID,18.8268,VALID,112,VALID,0.367188,
2014-01-05, 00:29:04,VALID,918.695,VALID,0,VALID,96.7945,VALID,0.107441,VALID,18.8073,VALID,112,VALID,0.537891,
2014-01-05, 00:30:04,VALID,918.688,VALID,0,VALID,96.7945,VALID,0.107441,VALID,18.8477,VALID,112,VALID,0.882031,
2014-01-05, 00:31:04,VALID,918.7,VALID,0,VALID,96.8021,VALID,0,VALID,18.8073,VALID,112,VALID,0.902734,
2014-01-05, 00:32:04,VALID,918.696,VALID,0,VALID,96.8021,VALID,0,VALID,18.7669,VALID,112,VALID,0.980469,
2014-01-05, 00:33:04,VALID,918.685,VALID,0,VALID,96.8021,VALID,0.107441,VALID,18.7878,VALID,112,VALID,1.04492,
2014-01-05, 00:34:04,VALID,918.67,VALID,0,VALID,96.7945,VALID,0,VALID,18.7488,VALID,114,VALID,0.698828,
2014-01-05, 00:35:04,VALID,918.664,VALID,0,VALID,96.7869,VALID,0,VALID,18.7683,VALID,137,VALID,0.819141,
2014-01-05, 00:36:04,VALID,918.68,VALID,0,VALID,96.7945,VALID,0.107441,VALID,18.7474,VALID,137,VALID,0.834766,
2014-01-05, 00:37:04,VALID,918.689,VALID,0,VALID,96.8021,VALID,0.107441,VALID,18.7474,VALID,137,VALID,0.682031,
2014-01-05, 00:38:04,VALID,918.697,VALID,0,VALID,96.7869,VALID,0.107441,VALID,18.7683,VALID,137,VALID,0.692578,
2014-01-05, 00:39:04,VALID,918.674,VALID,0,VALID,96.7869,VALID,0,VALID,18.7474,VALID,137,VALID,0.586719,
2014-01-05, 00:40:04,VALID,918.666,VALID,0,VALID,96.7945,VALID,0.107441,VALID,18.7878,VALID,137,VALID,0.8875,
2014-01-05, 00:41:04,VALID,918.692,VALID,0,VALID,96.8098,VALID,0.107441,VALID,18.7878,VALID,137,VALID,0.645703,
2014-01-05, 00:42:04,VALID,918.671,VALID,0,VALID,96.8021,VALID,0,VALID,18.8073,VALID,137,VALID,0.656641,
2014-01-05, 00:43:04,VALID,918.643,VALID,0,VALID,96.7793,VALID,0,VALID,18.7878,VALID,134,VALID,0.811719,
2014-01-05, 00:44:04,VALID,918.628,VALID,0,VALID,96.7869,VALID,0,VALID,18.7878,VALID,130,VALID,0.9875,
2014-01-05, 00:45:04,VALID,918.648,VALID,0,VALID,96.7869,VALID,0.107441,VALID,18.8073,VALID,126,VALID,0.922656,
2014-01-05, 00:46:04,VALID,918.605,VALID,0,VALID,96.7869,VALID,0,VALID,18.8073,VALID,131,VALID,0.628906,
2014-01-05, 00:47:04,VALID,918.628,VALID,0,VALID,96.7793,VALID,0.107441,VALID,18.8268,VALID,131,VALID,0.592969,
2014-01-05, 00:48:04,VALID,918.62,VALID,0,VALID,96.7869,VALID,0.107441,VALID,18.8073,VALID,138,VALID,0.330078,
2014-01-05, 00:49:04,VALID,918.62,VALID,0,VALID,96.7869,VALID,0.107441,VALID,18.8268,VALID,138,VALID,0.0730469,
2014-01-05, 00:50:04,VALID,918.58,VALID,0,VALID,96.7945,VALID,0.107441,VALID,18.8463,VALID,138,VALID,0.224219,
2014-01-05, 00:51:04,VALID,918.555,VALID,0,VALID,96.7945,VALID,0,VALID,18.8463,VALID,138,VALID,0.692578,
2014-01-05, 00:52:04,VALID,918.565,VALID,0,VALID,96.7869,VALID,0,VALID,18.8268,VALID,129,VALID,0.896094,
2014-01-05, 00:53:04,VALID,918.579,VALID,0,VALID,96.7793,VALID,0.107441,VALID,18.8268,VALID,119,VALID,0.745703,
2014-01-05, 00:54:04,VALID,918.567,VALID,0,VALID,96.7716,VALID,0,VALID,18.8268,VALID,119,VALID,0.734766,
2014-01-05, 00:55:04,VALID,918.546,VALID,0,VALID,96.7411,VALID,0,VALID,18.8463,VALID,119,VALID,0.738672,
2014-01-05, 00:56:04,VALID,918.551,VALID,0,VALID,96.7259,VALID,0,VALID,18.8658,VALID,120,VALID,0.800391,
2014-01-05, 00:57:04,VALID,918.541,VALID,0,VALID,96.703,VALID,0.107441,VALID,18.8853,VALID,132,VALID,0.743359,
2014-01-05, 00:58:04,VALID,918.532,VALID,0,VALID,96.6802,VALID,0.107441,VALID,18.8853,VALID,134,VALID,0.512109,
2014-01-05, 00:59:04,VALID,918.525,VALID,0,VALID,96.6497,VALID,0,VALID,18.8853,VALID,135,VALID,0.147266,
2014-01-05, 01:00:04,VALID,918.505,VALID,0,VALID,96.6344,VALID,0,VALID,18.8658,VALID,135,VALID,0.280859,
2014-01-05, 01:01:04,VALID,918.516,VALID,0,VALID,96.6115,VALID,0.107441,VALID,18.9062,VALID,135,VALID,0.368359,
2014-01-05, 01:02:04,VALID,918.486,VALID,0,VALID,96.5811,VALID,0.107441,VALID,18.8853,VALID,135,VALID,0.0734375,
2014-01-05, 01:03:04,VALID,918.482,VALID,0,VALID,96.5887,VALID,0.107441,VALID,18.8658,VALID,135,VALID,0.500391,
2014-01-05, 01:04:04,VALID,918.452,VALID,0,VALID,96.5582,VALID,0.107441,VALID,18.8853,VALID,135,VALID,0.601563,
2014-01-05, 01:05:04,VALID,918.436,VALID,0,VALID,96.5048,VALID,0,VALID,18.8853,VALID,120,VALID,0.973828,
2014-01-05, 01:06:04,VALID,918.433,VALID,0,VALID,96.4667,VALID,0.107441,VALID,18.8853,VALID,119,VALID,0.925781,
2014-01-05, 01:07:04,VALID,918.422,VALID,0,VALID,96.3981,VALID,0,VALID,18.8853,VALID,119,VALID,0.755078,
2014-01-05, 01:08:04,VALID,918.39,VALID,0,VALID,96.3676,VALID,0.107441,VALID,18.8853,VALID,119,VALID,0.973437,
2014-01-05, 01:09:04,VALID,918.354,VALID,0,VALID,96.3371,VALID,0.107441,VALID,18.8658,VALID,117,VALID,0.623047,
2014-01-05, 01:10:04,VALID,918.355,VALID,0,VALID,96.3066,VALID,0.107441,VALID,18.8463,VALID,115,VALID,0.130859,
2014-01-05, 01:11:04,VALID,918.334,VALID,0,VALID,96.2914,VALID,0,VALID,18.8254,VALID,113,VALID,0.832812,
2014-01-05, 01:12:04,VALID,918.343,VALID,0,VALID,96.2151,VALID,0.107441,VALID,18.8463,VALID,112,VALID,1.24023,
2014-01-05, 01:13:04,VALID,918.309,VALID,0,VALID,96.116,VALID,0.107441,VALID,18.9438,VALID,112,VALID,0.188672,
2014-01-05, 01:14:04,VALID,918.307,VALID,0,VALID,95.9788,VALID,0.107441,VALID,18.9828,VALID,112,VALID,0.05625,
2014-01-05, 01:15:04,VALID,918.309,VALID,0,VALID,95.8492,VALID,0.107441,VALID,18.9828,VALID,154,VALID,0.986719,
2014-01-05, 01:16:04,VALID,918.295,VALID,0,VALID,95.7654,VALID,0.107441,VALID,18.9814,VALID,155,VALID,1.02734,
2014-01-05, 01:17:04,VALID,918.259,VALID,0,VALID,95.7196,VALID,0.107441,VALID,18.9828,VALID,154,VALID,0.717969,
2014-01-05, 01:18:04,VALID,918.245,VALID,0,VALID,95.6815,VALID,0,VALID,18.9438,VALID,116,VALID,0.863281,
2014-01-05, 01:19:04,VALID,918.261,VALID,0,VALID,95.651,VALID,0.107441,VALID,18.9243,VALID,112,VALID,0.980469,
2014-01-05, 01:20:04,VALID,918.226,VALID,0,VALID,95.6815,VALID,0.107441,VALID,18.9048,VALID,112,VALID,1.02734,
2014-01-05, 01:21:04,VALID,918.226,VALID,0,VALID,95.7501,VALID,0,VALID,18.8853,VALID,120,VALID,1.04023,
2014-01-05, 01:22:04,VALID,918.228,VALID,0,VALID,95.8035,VALID,0,VALID,18.8867,VALID,142,VALID,0.441406,
2014-01-05, 01:23:04,VALID,918.189,VALID,0,VALID,95.8721,VALID,0.107441,VALID,18.8658,VALID,141,VALID,0.896875,
2014-01-05, 01:24:04,VALID,918.169,VALID,0,VALID,95.9026,VALID,0.107441,VALID,18.8672,VALID,141,VALID,0.832812,
2014-01-05, 01:25:04,VALID,918.187,VALID,0,VALID,95.9331,VALID,0.107441,VALID,18.8463,VALID,141,VALID,0.627344,
2014-01-05, 01:26:04,VALID,918.142,VALID,0,VALID,95.9254,VALID,0.107441,VALID,18.8463,VALID,126,VALID,1.11836,
2014-01-05, 01:27:04,VALID,918.17,VALID,0,VALID,95.895,VALID,0,VALID,18.8853,VALID,112,VALID,0.724219,
2014-01-05, 01:28:04,VALID,918.123,VALID,0,VALID,95.8568,VALID,0,VALID,18.8853,VALID,112,VALID,0.8,
2014-01-05, 01:29:04,VALID,918.122,VALID,0,VALID,95.8035,VALID,0.107441,VALID,18.8853,VALID,114,VALID,1.04961,
2014-01-05, 01:30:04,VALID,918.085,VALID,0,VALID,95.7882,VALID,0,VALID,18.8658,VALID,117,VALID,0.649609,
2014-01-05, 01:31:04,VALID,918.065,VALID,0,VALID,95.7882,VALID,0,VALID,18.8658,VALID,117,VALID,0.135547,
2014-01-05, 01:32:04,VALID,918.042,VALID,0,VALID,95.8187,VALID,0.107441,VALID,18.8853,VALID,116,VALID,0.0761719,
2014-01-05, 01:33:04,VALID,918.054,VALID,0,VALID,95.8263,VALID,0.107441,VALID,18.8254,VALID,117,VALID,0.211719,
2014-01-05, 01:34:04,VALID,918.032,VALID,0,VALID,95.8187,VALID,0.107441,VALID,18.8463,VALID,116,VALID,0,
2014-01-05, 01:35:04,VALID,918.036,VALID,0,VALID,95.8568,VALID,0.107441,VALID,18.8449,VALID,128,VALID,0.553125,
2014-01-05, 01:36:04,VALID,918.018,VALID,0,VALID,95.8721,VALID,0.107441,VALID,18.8463,VALID,128,VALID,0.510156,
2014-01-05, 01:37:04,VALID,918.028,VALID,0,VALID,95.8645,VALID,0,VALID,18.8463,VALID,128,VALID,0.305469,
2014-01-05, 01:38:04,VALID,918.038,VALID,0,VALID,95.8645,VALID,0,VALID,18.8463,VALID,128,VALID,0,
2014-01-05, 01:39:04,VALID,918.042,VALID,0,VALID,95.8568,VALID,0.107441,VALID,18.8463,VALID,128,VALID,0.0882813,
2014-01-05, 01:40:04,VALID,918.028,VALID,0,VALID,95.8263,VALID,0,VALID,18.8268,VALID,128,VALID,0.421875,
2014-01-05, 01:41:04,VALID,917.992,VALID,0,VALID,95.7806,VALID,0.107441,VALID,18.8268,VALID,128,VALID,0.449219,
2014-01-05, 01:42:04,VALID,918.011,VALID,0,VALID,95.7577,VALID,0,VALID,18.8073,VALID,122,VALID,0.578516,
2014-01-05, 01:43:04,VALID,917.98,VALID,0,VALID,95.7272,VALID,0.107441,VALID,18.7878,VALID,122,VALID,0.508203,
2014-01-05, 01:44:04,VALID,917.968,VALID,0,VALID,95.7349,VALID,0.107441,VALID,18.7474,VALID,122,VALID,0.5125,
2014-01-05, 01:45:04,VALID,917.967,VALID,0,VALID,95.6967,VALID,0,VALID,18.7683,VALID,122,VALID,0.292578,
2014-01-05, 01:46:04,VALID,917.945,VALID,0,VALID,95.7044,VALID,0,VALID,18.7683,VALID,122,VALID,0.603906,
2014-01-05, 01:47:04,VALID,917.901,VALID,0,VALID,95.6662,VALID,0.107441,VALID,18.7683,VALID,122,VALID,0.330859,
2014-01-05, 01:48:04,VALID,917.898,VALID,0,VALID,95.6739,VALID,0,VALID,18.7308,VALID,122,VALID,0.319922,
2014-01-05, 01:49:04,VALID,917.89,VALID,0,VALID,95.6586,VALID,0,VALID,18.7308,VALID,122,VALID,0.264453,
2014-01-05, 01:50:04,VALID,917.844,VALID,0,VALID,95.6739,VALID,0,VALID,18.7113,VALID,122,VALID,0,
2014-01-05, 01:51:04,VALID,917.858,VALID,0,VALID,95.712,VALID,0,VALID,18.6918,VALID,122,VALID,0,
2014-01-05, 01:52:04,VALID,917.833,VALID,0,VALID,95.7272,VALID,0,VALID,18.6723,VALID,122,VALID,0.125,
2014-01-05, 01:53:04,VALID,917.781,VALID,0,VALID,95.7501,VALID,0,VALID,18.6319,VALID,122,VALID,0.243359,
2014-01-05, 01:54:04,VALID,917.783,VALID,0,VALID,95.8111,VALID,0,VALID,18.6319,VALID,122,VALID,0.0242187,
2014-01-05, 01:55:04,VALID,917.764,VALID,0,VALID,95.8187,VALID,0,VALID,18.6333,VALID,122,VALID,0,
2014-01-05, 01:56:04,VALID,917.767,VALID,0,VALID,95.8721,VALID,0,VALID,18.6124,VALID,122,VALID,0,
2014-01-05, 01:57:04,VALID,917.715,VALID,0,VALID,95.9102,VALID,0,VALID,18.6138,VALID,122,VALID,0,
2014-01-05, 01:58:04,VALID,917.729,VALID,0,VALID,95.9178,VALID,0,VALID,18.6152,VALID,122,VALID,0,
2014-01-05, 01:59:04,VALID,917.691,VALID,0,VALID,95.9636,VALID,0,VALID,18.5943,VALID,122,VALID,0,
2014-01-05, 02:00:04,VALID,917.668,VALID,0,VALID,95.9788,VALID,0,VALID,18.5748,VALID,122,VALID,0,
2014-01-05, 02:01:04,VALID,917.661,VALID,0,VALID,96.0093,VALID,0,VALID,18.5748,VALID,122,VALID,0,
2014-01-05, 02:02:04,VALID,917.644,VALID,0,VALID,96.0245,VALID,0,VALID,18.5553,VALID,122,VALID,0.0554687,
2014-01-05, 02:03:04,VALID,917.647,VALID,0,VALID,96.0322,VALID,0,VALID,18.5344,VALID,122,VALID,0.541016,
2014-01-05, 02:04:04,VALID,917.632,VALID,0,VALID,96.055,VALID,0,VALID,18.4954,VALID,120,VALID,0.588672,
2014-01-05, 02:05:04,VALID,917.648,VALID,0,VALID,96.0779,VALID,0.107441,VALID,18.5163,VALID,121,VALID,0.298438,
2014-01-05, 02:06:04,VALID,917.646,VALID,0,VALID,96.0779,VALID,0.107441,VALID,18.4954,VALID,120,VALID,0,
2014-01-05, 02:07:04,VALID,917.662,VALID,0,VALID,96.0932,VALID,0,VALID,18.5149,VALID,120,VALID,0,
2014-01-05, 02:08:04,VALID,917.669,VALID,0,VALID,96.0932,VALID,0,VALID,18.5149,VALID,120,VALID,0,
2014-01-05, 02:09:04,VALID,917.655,VALID,0,VALID,96.116,VALID,0,VALID,18.5344,VALID,120,VALID,0,
2014-01-05, 02:10:04,VALID,917.637,VALID,0,VALID,96.0703,VALID,0,VALID,18.5553,VALID,120,VALID,0,
2014-01-05, 02:11:04,VALID,917.641,VALID,0,VALID,96.0322,VALID,0,VALID,18.5358,VALID,120,VALID,0,
2014-01-05, 02:12:04,VALID,917.624,VALID,0,VALID,95.9864,VALID,0.107441,VALID,18.5149,VALID,120,VALID,0,
2014-01-05, 02:13:04,VALID,917.635,VALID,0,VALID,95.9712,VALID,0,VALID,18.4954,VALID,120,VALID,0,
2014-01-05, 02:14:04,VALID,917.608,VALID,0,VALID,95.9712,VALID,0,VALID,18.4968,VALID,120,VALID,0,
2014-01-05, 02:15:04,VALID,917.603,VALID,0,VALID,95.9712,VALID,0.107441,VALID,18.4564,VALID,120,VALID,0,
2014-01-05, 02:16:04,VALID,917.584,VALID,0,VALID,95.9407,VALID,0,VALID,18.4578,VALID,120,VALID,0,
2014-01-05, 02:17:04,VALID,917.542,VALID,0,VALID,95.9712,VALID,0,VALID,18.4564,VALID,120,VALID,0,
2014-01-05, 02:18:04,VALID,917.535,VALID,0,VALID,95.9941,VALID,0,VALID,18.4369,VALID,121,VALID,0,
2014-01-05, 02:19:04,VALID,917.504,VALID,0,VALID,95.9941,VALID,0,VALID,18.4369,VALID,120,VALID,0,
2014-01-05, 02:20:04,VALID,917.501,VALID,0,VALID,96.0093,VALID,0,VALID,18.4369,VALID,120,VALID,0,
2014-01-05, 02:21:04,VALID,917.467,VALID,0,VALID,96.0169,VALID,0,VALID,18.4174,VALID,120,VALID,0,
2014-01-05, 02:22:04,VALID,917.47,VALID,0,VALID,96.055,VALID,0,VALID,18.4383,VALID,120,VALID,0,
2014-01-05, 02:23:04,VALID,917.421,VALID,0,VALID,96.0703,VALID,0,VALID,18.4174,VALID,120,VALID,0,
2014-01-05, 02:24:04,VALID,917.403,VALID,0,VALID,96.0474,VALID,0,VALID,18.4578,VALID,120,VALID,0,
2014-01-05, 02:25:04,VALID,917.383,VALID,0,VALID,96.0703,VALID,0.107441,VALID,18.4578,VALID,120,VALID,0.408203,
2014-01-05, 02:26:04,VALID,917.332,VALID,0,VALID,96.0703,VALID,0.107441,VALID,18.4369,VALID,120,VALID,0.867188,
2014-01-05, 02:27:04,VALID,917.348,VALID,0,VALID,96.055,VALID,0.107441,VALID,18.4369,VALID,120,VALID,1.00312,
2014-01-05, 02:28:04,VALID,917.311,VALID,0,VALID,96.0398,VALID,0,VALID,18.4383,VALID,120,VALID,0.927344,
2014-01-05, 02:29:04,VALID,917.301,VALID,0,VALID,96.0245,VALID,0,VALID,18.3979,VALID,120,VALID,1.01445,
2014-01-05, 02:30:04,VALID,917.286,VALID,0,VALID,96.0474,VALID,0,VALID,18.3979,VALID,120,VALID,0.978516,
2014-01-05, 02:31:04,VALID,917.262,VALID,0,VALID,96.0398,VALID,0,VALID,18.4188,VALID,120,VALID,0.853516,
2014-01-05, 02:32:04,VALID,917.257,VALID,0,VALID,96.116,VALID,0.107441,VALID,18.4174,VALID,120,VALID,0.664453,
2014-01-05, 02:33:04,VALID,917.225,VALID,0,VALID,96.1008,VALID,0,VALID,18.3798,VALID,120,VALID,0.3875,
2014-01-05, 02:34:04,VALID,917.211,VALID,0,VALID,96.1084,VALID,0,VALID,18.3589,VALID,120,VALID,0.694922,
2014-01-05, 02:35:04,VALID,917.189,VALID,0,VALID,96.177,VALID,0,VALID,18.3993,VALID,120,VALID,0.746875,
2014-01-05, 02:36:04,VALID,917.186,VALID,0,VALID,96.2456,VALID,0,VALID,18.3784,VALID,121,VALID,0.703125,
2014-01-05, 02:37:04,VALID,917.159,VALID,0,VALID,96.299,VALID,0,VALID,18.3784,VALID,127,VALID,0.757813,
2014-01-05, 02:38:04,VALID,917.15,VALID,0,VALID,96.3447,VALID,0,VALID,18.3993,VALID,132,VALID,0.678516,
2014-01-05, 02:39:04,VALID,917.134,VALID,0,VALID,96.3905,VALID,0,VALID,18.3784,VALID,132,VALID,0.624609,
2014-01-05, 02:40:04,VALID,917.132,VALID,0,VALID,96.4286,VALID,0,VALID,18.3979,VALID,132,VALID,0.660547,
2014-01-05, 02:41:04,VALID,917.125,VALID,0,VALID,96.4819,VALID,0,VALID,18.4188,VALID,132,VALID,0.753906,
2014-01-05, 02:42:04,VALID,917.086,VALID,0,VALID,96.5048,VALID,0,VALID,18.4383,VALID,132,VALID,1.06016,
2014-01-05, 02:43:04,VALID,917.076,VALID,0,VALID,96.5811,VALID,0,VALID,18.4383,VALID,132,VALID,0.970703,
2014-01-05, 02:44:04,VALID,917.068,VALID,0,VALID,96.6039,VALID,0,VALID,18.4578,VALID,132,VALID,1.06211,
2014-01-05, 02:45:04,VALID,917.027,VALID,0,VALID,96.6115,VALID,0,VALID,18.4578,VALID,131,VALID,0.9375,
2014-01-05, 02:46:04,VALID,917,VALID,0,VALID,96.642,VALID,0,VALID,18.4383,VALID,132,VALID,0.928906,
2014-01-05, 02:47:04,VALID,916.995,VALID,0,VALID,96.6649,VALID,0,VALID,18.4383,VALID,134,VALID,0.954687,
2014-01-05, 02:48:04,VALID,916.932,VALID,0,VALID,96.6802,VALID,0,VALID,18.4383,VALID,135,VALID,0.895703,
2014-01-05, 02:49:04,VALID,916.899,VALID,0,VALID,96.6344,VALID,0,VALID,18.4369,VALID,135,VALID,1.02266,
2014-01-05, 02:50:04,VALID,916.908,VALID,0,VALID,96.6573,VALID,0,VALID,18.4383,VALID,133,VALID,1.13125,
2014-01-05, 02:51:04,VALID,916.893,VALID,0,VALID,96.6878,VALID,0,VALID,18.4592,VALID,132,VALID,1.06406,
2014-01-05, 02:52:04,VALID,916.869,VALID,0,VALID,96.6954,VALID,0,VALID,18.4383,VALID,133,VALID,0.944141,
2014-01-05, 02:53:04,VALID,916.833,VALID,0,VALID,96.6954,VALID,0,VALID,18.4369,VALID,132,VALID,0.930859,
2014-01-05, 02:54:04,VALID,916.828,VALID,0,VALID,96.7183,VALID,0,VALID,18.4369,VALID,139,VALID,1.08242,
2014-01-05, 02:55:04,VALID,916.807,VALID,0,VALID,96.7259,VALID,0,VALID,18.4369,VALID,141,VALID,1.19883,
2014-01-05, 02:56:04,VALID,916.8,VALID,0,VALID,96.7335,VALID,0,VALID,18.4578,VALID,140,VALID,0.969922,
2014-01-05, 02:57:04,VALID,916.759,VALID,0,VALID,96.7411,VALID,0,VALID,18.4578,VALID,130,VALID,1.28359,
2014-01-05, 02:58:04,VALID,916.75,VALID,0,VALID,96.7259,VALID,0,VALID,18.4369,VALID,121,VALID,1.10625,
2014-01-05, 02:59:04,VALID,916.761,VALID,0,VALID,96.7564,VALID,0,VALID,18.4578,VALID,132,VALID,1.14414,
2014-01-05, 03:00:04,VALID,916.748,VALID,0,VALID,96.7488,VALID,0,VALID,18.4383,VALID,131,VALID,0.997656,
2014-01-05, 03:01:04,VALID,916.734,VALID,0,VALID,96.7716,VALID,0,VALID,18.4383,VALID,137,VALID,1.00195,
2014-01-05, 03:02:04,VALID,916.723,VALID,0,VALID,96.7869,VALID,0,VALID,18.4383,VALID,135,VALID,1.0332,
2014-01-05, 03:03:04,VALID,916.716,VALID,0,VALID,96.7793,VALID,0,VALID,18.4578,VALID,133,VALID,1.28242,
2014-01-05, 03:04:04,VALID,916.689,VALID,0,VALID,96.7793,VALID,0,VALID,18.4383,VALID,131,VALID,1.14023,
2014-01-05, 03:05:04,VALID,916.679,VALID,0,VALID,96.7716,VALID,0,VALID,18.4773,VALID,131,VALID,1.03828,
2014-01-05, 03:06:04,VALID,916.684,VALID,0,VALID,96.7564,VALID,0,VALID,18.4369,VALID,130,VALID,1.04141,
2014-01-05, 03:07:04,VALID,916.711,VALID,0,VALID,96.7259,VALID,0,VALID,18.4383,VALID,130,VALID,0.528516,
2014-01-05, 03:08:04,VALID,916.674,VALID,0,VALID,96.7107,VALID,0,VALID,18.4383,VALID,130,VALID,0.912109,
2014-01-05, 03:09:04,VALID,916.681,VALID,0,VALID,96.6878,VALID,0,VALID,18.4174,VALID,130,VALID,0.975391,
2014-01-05, 03:10:04,VALID,916.699,VALID,0,VALID,96.6573,VALID,0,VALID,18.4383,VALID,130,VALID,0.979297,
2014-01-05, 03:11:04,VALID,916.681,VALID,0,VALID,96.6573,VALID,0,VALID,18.4383,VALID,130,VALID,1.04805,
2014-01-05, 03:12:04,VALID,916.695,VALID,0,VALID,96.6268,VALID,0,VALID,18.4383,VALID,132,VALID,1.00391,
2014-01-05, 03:13:04,VALID,916.683,VALID,0,VALID,96.5887,VALID,0,VALID,18.4773,VALID,136,VALID,0.645703,
2014-01-05, 03:14:04,VALID,916.684,VALID,0,VALID,96.5506,VALID,0,VALID,18.5191,VALID,136,VALID,0.489844,
2014-01-05, 03:15:04,VALID,916.682,VALID,0,VALID,96.5201,VALID,0,VALID,18.4773,VALID,136,VALID,0.691016,
2014-01-05, 03:16:04,VALID,916.689,VALID,0,VALID,96.4819,VALID,0,VALID,18.4968,VALID,146,VALID,0.708594,
2014-01-05, 03:17:04,VALID,916.662,VALID,0,VALID,96.4057,VALID,0,VALID,18.4968,VALID,146,VALID,0.833203,
2014-01-05, 03:18:04,VALID,916.684,VALID,0,VALID,96.3524,VALID,0,VALID,18.4759,VALID,146,VALID,0.748828,
2014-01-05, 03:19:04,VALID,916.672,VALID,0,VALID,96.3219,VALID,0.107441,VALID,18.4954,VALID,146,VALID,0.757031,
2014-01-05, 03:20:04,VALID,916.675,VALID,0,VALID,96.238,VALID,0,VALID,18.5149,VALID,146,VALID,0.858203,
2014-01-05, 03:21:04,VALID,916.68,VALID,0,VALID,96.1541,VALID,0,VALID,18.5358,VALID,146,VALID,0.664063,
2014-01-05, 03:22:04,VALID,916.665,VALID,0,VALID,96.055,VALID,0,VALID,18.5539,VALID,145,VALID,0.573047,
2014-01-05, 03:23:04,VALID,916.633,VALID,0,VALID,95.9407,VALID,0,VALID,18.5734,VALID,143,VALID,0.447656,
2014-01-05, 03:24:04,VALID,916.671,VALID,0,VALID,95.8187,VALID,0,VALID,18.5943,VALID,136,VALID,0.940625,
2014-01-05, 03:25:04,VALID,916.652,VALID,0,VALID,95.712,VALID,0,VALID,18.5929,VALID,129,VALID,0.415234,
2014-01-05, 03:26:04,VALID,916.644,VALID,0,VALID,95.6281,VALID,0,VALID,18.5943,VALID,129,VALID,0.879687,
2014-01-05, 03:27:04,VALID,916.64,VALID,0,VALID,95.59,VALID,0.107441,VALID,18.5539,VALID,116,VALID,0.876953,
2014-01-05, 03:28:04,VALID,916.655,VALID,0,VALID,95.59,VALID,0,VALID,18.5553,VALID,116,VALID,0.739844,
2014-01-05, 03:29:04,VALID,916.627,VALID,0,VALID,95.6129,VALID,0,VALID,18.5358,VALID,116,VALID,1.1125,
2014-01-05, 03:30:04,VALID,916.636,VALID,0,VALID,95.6357,VALID,0,VALID,18.5553,VALID,116,VALID,0.898828,
2014-01-05, 03:31:04,VALID,916.66,VALID,0,VALID,95.6205,VALID,0,VALID,18.5358,VALID,124,VALID,0.701172,
2014-01-05, 03:32:04,VALID,916.648,VALID,0,VALID,95.6434,VALID,0,VALID,18.5748,VALID,116,VALID,0.100781,
2014-01-05, 03:33:04,VALID,916.678,VALID,0,VALID,95.59,VALID,0,VALID,18.5748,VALID,116,VALID,0.244531,
2014-01-05, 03:34:04,VALID,916.671,VALID,0,VALID,95.5519,VALID,0,VALID,18.5748,VALID,116,VALID,0.474219,
2014-01-05, 03:35:04,VALID,916.644,VALID,0,VALID,95.5062,VALID,0,VALID,18.5748,VALID,116,VALID,0.700391,
2014-01-05, 03:36:04,VALID,916.667,VALID,0,VALID,95.4833,VALID,0,VALID,18.5748,VALID,116,VALID,0.219141,
2014-01-05, 03:37:04,VALID,916.668,VALID,0,VALID,95.4909,VALID,0,VALID,18.5553,VALID,116,VALID,0.223438,
2014-01-05, 03:38:04,VALID,916.703,VALID,0,VALID,95.5214,VALID,0,VALID,18.5344,VALID,117,VALID,0.210547,
2014-01-05, 03:39:04,VALID,916.697,VALID,0,VALID,95.5976,VALID,0,VALID,18.5149,VALID,116,VALID,0,
2014-01-05, 03:40:04,VALID,916.675,VALID,0,VALID,95.6205,VALID,0,VALID,18.5344,VALID,117,VALID,0.0492188,
2014-01-05, 03:41:04,VALID,916.701,VALID,0,VALID,95.6662,VALID,0,VALID,18.5748,VALID,116,VALID,0,
2014-01-05, 03:42:04,VALID,916.721,VALID,0,VALID,95.6967,VALID,0,VALID,18.5929,VALID,117,VALID,0.462109,